Hourly Weather Adampole

Today, 7 March, Sunday

Time Temperature Precipitation Wind Pressure Humidity
00:00 -4°C° 0 mm 7 mps 743 mmHg 64%
01:00 -4°C° 0 mm 7 mps 741 mmHg 67%
02:00 -4°C° 0 mm 7 mps 740 mmHg 72%
03:00 -4°C° 0.2 mm 7 mps 739 mmHg 79%
04:00 -5°C° 0.2 mm 8 mps 738 mmHg 85%
05:00 -4°C° 0.2 mm 8 mps 737 mmHg 92%
06:00 -4°C° 1 mm 7 mps 736 mmHg 91%
07:00 -6°C° 1 mm 7 mps 736 mmHg 89%
08:00 -5°C° 1 mm 6 mps 735 mmHg 88%
09:00 -5°C° 0.3 mm 5 mps 735 mmHg 86%
10:00 -4°C° 0.3 mm 4 mps 735 mmHg 84%
11:00 -4°C° 0.3 mm 4 mps 734 mmHg 83%
12:00 -5°C° 0.4 mm 6 mps 735 mmHg 73%
13:00 -4°C° 0.4 mm 7 mps 735 mmHg 63%
14:00 -5°C° 0.4 mm 9 mps 735 mmHg 53%
15:00 -5°C° 0 mm 8 mps 735 mmHg 55%
16:00 -6°C° 0 mm 7 mps 736 mmHg 56%
17:00 -5°C° 0 mm 6 mps 736 mmHg 58%
18:00 -6°C° 0 mm 5 mps 736 mmHg 62%
19:00 -7°C° 0 mm 5 mps 736 mmHg 65%
20:00 -7°C° 0 mm 4 mps 737 mmHg 69%
21:00 -8°C° 0 mm 5 mps 737 mmHg 73%
22:00 -8°C° 0 mm 5 mps 737 mmHg 76%
23:00 -8°C° 0 mm 5 mps 737 mmHg 80%

Tomorrow, 8 March, Monday

Time Temperature Precipitation Wind Pressure Humidity
00:00 -8°C° 0.1 mm 5 mps 737 mmHg 83%
01:00 -8°C° 0.1 mm 5 mps 737 mmHg 86%
02:00 -8°C° 0.1 mm 4 mps 738 mmHg 89%
03:00 -8°C° 0 mm 4 mps 738 mmHg 89%
04:00 -8°C° 0 mm 4 mps 738 mmHg 89%
05:00 -8°C° 0 mm 4 mps 738 mmHg 89%
06:00 -9°C° 0 mm 4 mps 739 mmHg 86%
07:00 -9°C° 0 mm 4 mps 740 mmHg 82%
08:00 -10°C° 0 mm 4 mps 740 mmHg 79%
09:00 -10°C° 0 mm 5 mps 741 mmHg 77%
10:00 -10°C° 0 mm 5 mps 742 mmHg 74%
11:00 -8°C° 0 mm 5 mps 742 mmHg 72%
12:00 -8°C° 0 mm 5 mps 743 mmHg 70%
13:00 -8°C° 0 mm 5 mps 744 mmHg 67%
14:00 -7°C° 0 mm 5 mps 744 mmHg 65%
15:00 -8°C° 0 mm 5 mps 744 mmHg 67%
16:00 -8°C° 0 mm 4 mps 745 mmHg 69%
17:00 -9°C° 0 mm 4 mps 745 mmHg 71%
18:00 -8°C° 0 mm 3 mps 746 mmHg 75%
19:00 -9°C° 0 mm 3 mps 746 mmHg 79%
20:00 -9°C° 0 mm 2 mps 747 mmHg 83%
21:00 -9°C° 0 mm 2 mps 747 mmHg 84%
22:00 -10°C° 0 mm 2 mps 748 mmHg 86%
23:00 -10°C° 0 mm 2 mps 748 mmHg 88%

Day after tomorrow, 9 March, Tuesday

Time Temperature Precipitation Wind Pressure Humidity
00:00 -10°C° 0 mm 2 mps 748 mmHg 89%
01:00 -12°C° 0 mm 2 mps 749 mmHg 91%
02:00 -12°C° 0 mm 2 mps 749 mmHg 93%
03:00 -13°C° 0 mm 2 mps 749 mmHg 93%
04:00 -13°C° 0 mm 2 mps 749 mmHg 94%
05:00 -13°C° 0 mm 2 mps 750 mmHg 94%
06:00 -13°C° 0 mm 2 mps 750 mmHg 91%
07:00 -13°C° 0 mm 2 mps 750 mmHg 88%
08:00 -13°C° 0 mm 2 mps 751 mmHg 85%
09:00 -10°C° 0 mm 2 mps 751 mmHg 76%
10:00 -9°C° 0 mm 2 mps 751 mmHg 68%
11:00 -8°C° 0 mm 2 mps 751 mmHg 59%
12:00 -7°C° 0 mm 2 mps 752 mmHg 57%
13:00 -6°C° 0 mm 2 mps 752 mmHg 56%
14:00 -5°C° 0 mm 2 mps 752 mmHg 54%
15:00 -6°C° 0 mm 2 mps 752 mmHg 58%
16:00 -6°C° 0 mm 2 mps 751 mmHg 62%
17:00 -4°C° 0 mm 1 mps 751 mmHg 67%
18:00 -6°C° 0 mm 2 mps 751 mmHg 70%
19:00 -7°C° 0 mm 2 mps 751 mmHg 74%
20:00 -7°C° 0 mm 2 mps 752 mmHg 77%
21:00 -7°C° 0 mm 2 mps 751 mmHg 77%
22:00 -7°C° 0 mm 2 mps 751 mmHg 76%
23:00 -8°C° 0 mm 3 mps 751 mmHg 76%

10 March, Wednesday

Time Temperature Precipitation Wind Pressure Humidity
00:00 -8°C° 0 mm 3 mps 751 mmHg 76%
01:00 -8°C° 0 mm 3 mps 751 mmHg 76%
02:00 -8°C° 0 mm 3 mps 751 mmHg 76%
03:00 -8°C° 0 mm 3 mps 750 mmHg 78%
04:00 -8°C° 0 mm 3 mps 750 mmHg 79%
05:00 -8°C° 0 mm 3 mps 750 mmHg 80%
06:00 -8°C° 0.1 mm 4 mps 750 mmHg 82%
07:00 -8°C° 0.1 mm 4 mps 750 mmHg 83%
08:00 -8°C° 0.1 mm 4 mps 750 mmHg 85%
09:00 -7°C° 0.2 mm 4 mps 750 mmHg 83%
10:00 -5°C° 0.2 mm 4 mps 750 mmHg 82%
11:00 -5°C° 0.2 mm 4 mps 750 mmHg 80%
12:00 -4°C° 0.2 mm 4 mps 750 mmHg 80%
13:00 -4°C° 0.2 mm 4 mps 750 mmHg 81%
14:00 -3°C° 0.2 mm 4 mps 750 mmHg 81%
15:00 -3°C° 0.1 mm 4 mps 750 mmHg 81%
16:00 -2°C° 0.1 mm 3 mps 750 mmHg 82%
17:00 -2°C° 0.1 mm 3 mps 750 mmHg 82%
18:00 -4°C° 0.1 mm 3 mps 750 mmHg 84%
19:00 -4°C° 0.1 mm 3 mps 750 mmHg 87%
20:00 -5°C° 0.1 mm 3 mps 750 mmHg 89%
21:00 -5°C° 0 mm 3 mps 750 mmHg 88%
22:00 -5°C° 0 mm 3 mps 750 mmHg 87%
23:00 -6°C° 0 mm 3 mps 750 mmHg 86%

11 March, Thursday

Time Temperature Precipitation Wind Pressure Humidity
00:00 -6°C° 0 mm 3 mps 750 mmHg 87%
01:00 -6°C° 0 mm 3 mps 750 mmHg 88%
02:00 -6°C° 0 mm 3 mps 750 mmHg 89%
03:00 -6°C° 0.1 mm 3 mps 750 mmHg 89%
04:00 -6°C° 0.1 mm 3 mps 749 mmHg 89%
05:00 -6°C° 0.1 mm 3 mps 749 mmHg 89%
06:00 -6°C° 0 mm 3 mps 749 mmHg 87%
07:00 -6°C° 0 mm 3 mps 749 mmHg 84%
08:00 -6°C° 0 mm 3 mps 749 mmHg 81%
09:00 -5°C° 0 mm 4 mps 749 mmHg 75%
10:00 -4°C° 0 mm 4 mps 748 mmHg 69%
11:00 -2°C° 0 mm 5 mps 748 mmHg 63%
12:00 -2°C° 0 mm 5 mps 747 mmHg 61%
13:00 -1°C° 0 mm 5 mps 747 mmHg 59%
14:00 -1°C° 0 mm 6 mps 746 mmHg 57%
15:00 -2°C° 0 mm 6 mps 745 mmHg 58%
16:00 -3°C° 0 mm 6 mps 745 mmHg 59%
17:00 -3°C° 0 mm 6 mps 744 mmHg 61%
18:00 -3°C° 0 mm 6 mps 743 mmHg 66%
19:00 -4°C° 0 mm 7 mps 742 mmHg 71%
20:00 -4°C° 0 mm 7 mps 741 mmHg 76%
21:00 -5°C° 0.6 mm 8 mps 740 mmHg 82%
22:00 -5°C° 0.6 mm 8 mps 738 mmHg 88%
23:00 -5°C° 0.6 mm 8 mps 737 mmHg 94%

12 March, Friday

Time Temperature Precipitation Wind Pressure Humidity
00:00 -5°C° 0.8 mm 8 mps 736 mmHg 95%
01:00 -3°C° 0.8 mm 7 mps 735 mmHg 95%
02:00 -3°C° 0.8 mm 7 mps 733 mmHg 96%
03:00 -2°C° 1.3 mm 6 mps 733 mmHg 96%
04:00 -1°C° 1.3 mm 5 mps 732 mmHg 97%
05:00 0°C° 1.3 mm 4 mps 732 mmHg 97%
06:00 0°C° 0 mm 4 mps 732 mmHg 96%
07:00 0°C° 0 mm 5 mps 732 mmHg 95%
08:00 0°C° 0 mm 5 mps 732 mmHg 94%
09:00 0°C° 0.1 mm 5 mps 732 mmHg 93%
10:00 +1°C° 0.1 mm 5 mps 733 mmHg 92%
11:00 +1°C° 0.1 mm 6 mps 733 mmHg 91%
12:00 +1°C° 0.1 mm 6 mps 733 mmHg 86%
13:00 +2°C° 0.1 mm 5 mps 733 mmHg 82%
14:00 +2°C° 0.1 mm 5 mps 734 mmHg 77%
15:00 +2°C° 0 mm 5 mps 734 mmHg 80%
16:00 +1°C° 0 mm 4 mps 733 mmHg 82%
17:00 +2°C° 0 mm 3 mps 733 mmHg 84%
18:00 +1°C° 0.3 mm 4 mps 733 mmHg 87%
19:00 0°C° 0.3 mm 4 mps 733 mmHg 91%
20:00 0°C° 0.3 mm 4 mps 734 mmHg 94%
21:00 0°C° 0.1 mm 5 mps 734 mmHg 94%
22:00 0°C° 0.1 mm 5 mps 734 mmHg 94%
23:00 0°C° 0.1 mm 5 mps 734 mmHg 95%
Show more